Content
SEND FEEDBACK

Daily
Averages
Monthly
Summary
Philippines

QUEZON CITY, PHILIPPINES


Home > Asia > Philippines
Elevation: 46 meters     Latitude: 14 39N     Longitude: 121 03E

WEATHER
 
SELECT A DAY
Number of Records: 172,573;   Date Range: 7/1/96 - 8/12/14
 
SHARE

PRINT THIS DATA

[ ← Previous Day ]
WEATHER ALMANAC - 8 APRIL, 2013
[ Next Day → ]
[ °F ]   °C
Weather ElementAverageHighLow
Temperature29.3 °C36 °C (1:00 pm) (4:00 pm)
Dewpoint22.5 °C25 °C (1:00 am) (7:00 pm)
Humidity65 %84 % (5:00 am)39 % (2:00 pm)
Barometer1008.5 hPa1011.5 hPa (11:00 pm)1006.1 hPa (3:00 pm)
Wind Speed9 km/h16.7 km/h (6:00 pm)
Weather ElementAverage
Visibility9.8 km
Wind DirectionSSE (145.2 °)

Weather ElementTotal
Precipitation---
Heating Degree Days9.2 (Base 18.3)
Averaged from 31 records on 8 April, 2013
WEATHER CONDITIONS BREAKOUT
WIND DIRECTION BREAKOUT
WEATHER BY HOUR - 8 APRIL, 2013
[ °F ]   °C
Local TimeTemperatureDewpointHumidityBarometerVisibilityWind DirectionWind SpeedGust SpeedPrecipitationEventsConditions
1:00 AM29 °C25 °C79 %1008.1 hPa10 kmESE (120°)9.3 km/hPartly Cloudy
2:00 AM28.9 °C24.4 °C72 %1007.8 hPa9.7 kmESE (120°)7.2 km/hHaze
2:00 AM29 °C25 °C79 %1008.1 hPa10 kmESE (120°)5.6 km/hPartly Cloudy
3:00 AM28 °C24 °C79 %1007.1 hPa10 kmVariable1.9 km/hPartly Cloudy
4:00 AM28 °C24 °C79 %1007.1 hPa10 kmCalmPartly Cloudy
5:00 AM27.8 °C24.4 °C78 %1006.8 hPa9.7 kmWest (280°)3.5 km/hHaze
5:00 AM28 °C25 °C84 %1007.1 hPa10 kmWest (280°)5.6 km/hPartly Cloudy
6:00 AM28 °C23 °C74 %1008.1 hPa10 kmNW (310°)5.6 km/hPartly Cloudy
7:00 AM30 °C24 °C70 %1009.1 hPa10 kmCalmPartly Cloudy
8:00 AM30 °C24.4 °C66 %1010.8 hPa9.7 kmSouth (180°)7.2 km/hHaze
8:00 AM30 °C25 °C74 %1010.2 hPa10 kmSouth (180°)5.6 km/hPartly Cloudy
9:00 AM31 °C24 °C66 %1011.2 hPa10 kmSSW (200°)5.6 km/hPartly Cloudy
10:00 AM31 °C25 °C70 %1011.2 hPa10 kmNW (310°)13 km/hPartly Cloudy
11:00 AM31.7 °C24.4 °C57 %1010.5 hPa9.7 kmWNW (300°)10.8 km/hHaze
11:00 AM32 °C25 °C66 %1010.2 hPa10 kmWNW (300°)9.3 km/hScattered Clouds
12:00 PM35 °C24 °C53 %1009.1 hPa10 kmVariable7.4 km/hScattered Clouds
1:00 PM36 °C23 °C47 %1008.1 hPa10 kmVariable7.4 km/hScattered Clouds
2:00 PM35 °C22.8 °C39 %1007.5 hPa9.7 kmESE (120°)10.8 km/hHaze
2:00 PM36 °C23 °C47 %1007.1 hPa10 kmSE (130°)11.1 km/hScattered Clouds
3:00 PM35 °C22 °C47 %1006.1 hPa10 kmSE (140°)14.8 km/hPartly Cloudy
4:00 PM-17.8 °C-17.8 °C1006.1 hPa10 kmESE (110°)13 km/hPartly Cloudy
5:00 PM33.9 °C21.7 °C40 %1006.4 hPa9.7 kmSE (130°)10.8 km/hHaze
5:00 PM34 °C22 °C49 %1006.1 hPa10 kmSE (130°)13 km/hScattered Clouds
6:00 PM32 °C24 °C62 %1007.1 hPa10 kmSE (130°)16.7 km/hScattered Clouds
7:00 PM31 °C24 °C66 %1007.1 hPa10 kmSE (130°)14.8 km/hPartly Cloudy
8:00 PM30.6 °C24.4 °C62 %1009.1 hPa9.7 kmSE (130°)10.8 km/hHaze
8:00 PM30 °C24 °C70 %1009.1 hPa10 kmSE (130°)11.1 km/hPartly Cloudy
9:00 PM30 °C24 °C70 %1010.2 hPa10 kmESE (120°)13 km/hPartly Cloudy
10:00 PM29 °C23 °C70 %1011.2 hPa10 kmSE (140°)7.4 km/hPartly Cloudy
11:00 PM28.9 °C23.3 °C65 %1011.5 hPa9.7 kmSE (130°)14.3 km/hHaze
11:00 PM29 °C23 °C70 %1011.2 hPa10 kmSE (130°)13 km/hPartly Cloudy
Hourly data recorded from RPLL, located 0 kilometers away from Quezon City, Philippines







STORIES FROM OUR PARTNERS